STARLINK-1958 (47559 NORAD) Tracking and Keplerian Element Data

This shows tracking and keplerian element data for the satellite.

Feedback or suggestion? Click here.




ElementValue
Catalog47559
NameSTARLINK-1958
Epoch Orbit177
Epoch Day101.91668981
Epoch Year2021
RAAN157.5082
Inclination53.052
Eccentricity0.0003979
Argument of Perigee16.4072
Mean Anonmoly246.2631
Mean Motion15.62799708
Decay Rate0.00035234
L11 47559U 21009M 21101.91668981 .00035234 00000-0 38817-3 0 9992
L22 47559 53.0520 157.5082 0003979 16.4072 246.2631 15.62799708 1776

Live tracking and technical data element details for STARLINK-1958 (NORAD 47559). STARLINK-1958 can be tracked NOW for your location showing map with azimuth and elevation plus other details from your city location.

Track the satellite on the map from your city or location and see movement details for azimuth, elevation, latitude, longitude, range, height, and movement on the map or in text.







IsCatalogInMostPopularTable: catalog: 47559, numindb: 17
Update: records affected: 1



GetName: 47559 STARLINK-1958

Hit Count: updated at: Tue, 13 Apr 2021 04:06:12 GMT